ラッセル-リニア彗星

156P/Russell-LINEAR (2020)

English version
Home page
Updated on August 15, 2020

---------------------------------------------------------------------

・ プロフィール

・ 軌道要素

Epoch 2020 Nov. 7.0 TT = JDT 2459160.5
T 2020 Nov. 17.87306 TT                                 Rudenko
q   1.3330158            (2000.0)            P               Q
n   0.15314459     Peri.    0.42751     +0.81128908     -0.55883982
a   3.4599376      Node    35.36949     +0.53551688     +0.59242143
e   0.6147284      Incl.   17.26316     +0.23458837     +0.58028864
P   6.44
From 154 observations 1986 Sept. 3-2020 July 31, mean residual 0".7.

・ 星図

・ 光度変化

        m1 = 16.8 + 5 logΔ + 5.0 log r

---------------------------------------------------------------------

軌道要素はM.P.E.C. 2020-P19に掲載されたものです。
星図はステラナビゲータ Ver.10 (アストロアーツ) で作成したものです。
光度グラフはComet for Windowsで作成したものです。

---------------------------------------------------------------------

Copyright(C) Seiichi Yoshida (comet@aerith.net). All rights reserved.